Weather in Kirkuk

Iraq     35˚26′55″N   44˚22′49″E
temp.,
°C
wind,
m/s
gust,
m/s
humid.,
%
clouds,
%
prec.,
mm/h
press.,
hPa
HPBL,
m
3 december, thu
thu300:00+13˚ese23530 0.0 102223
03:00+11˚ene12620 0.0 102223
06:00+11˚ene23580 0.0 102227
09:00+14˚ene34460 0.0 1023120
12:00+18˚ene12380 0.0 1021536
15:00+18˚nnw01400 0.0 1020970
18:00+15˚ne12530 0.0 102123
21:00+14˚ene23510 0.0 102123
4 december, fri
fri400:00+13˚ene33520 0.0 102233
03:00+12˚ene34551 0.0 102141
06:00+12˚ene34555 0.0 102139
09:00+14˚ene33472 0.0 1021110
12:00+18˚ene11400 0.0 1020575
15:00+18˚w11421 0.0 10181037
18:00+15˚nnw125329 0.0 101923
21:00+14˚n125723 0.0 101923
5 december, sat
sat500:00+13˚ne125721 0.0 101923
03:00+12˚e235824 0.0 101827
06:00+12˚ene235879 0.0 101829
09:00+14˚ene335489 0.0 1018124
12:00+16˚ne2345100 0.0 1016533
15:00+16˚ne3343100 0.0 1015663
18:00+14˚ne3551100 0.0 101597
21:00+12˚ne455396 0.0 1015107
6 december, sun
sun600:00+11˚ne455672 0.0 101577
03:00+10˚ene455648 0.0 101570
06:00+10˚ene445623 0.0 101656
09:00+12˚ene355021 0.0 1016176
12:00+16˚e123963 0.0 1015812
15:00+17˚nnw223832 0.0 10141114
18:00+14˚n33490 0.0 101542
21:00+12˚nne23520 0.0 101730
7 december, mon
mon700:00+11˚ne33550 0.0 101746
03:00+10˚ene33570 0.0 101843
06:00+10˚ene33570 0.0 101935
09:00+12˚ene33480 0.0 1020122
12:00+16˚nne11380 0.0 1019678
15:00+16˚nw32360 0.0 10181181
18:00+13˚nnw34440 0.0 102076
21:00+11˚nne23490 0.0 102123